EHI
17 16 17 16 10 3 0 0 1 2 2 2 3 3 3 3 3 3 3 3 3 3 3 3 3 3 2 1 1 2 3 4 6 6 5 5 5 6 7 7 6 4 3
16 15 17 16 9 4 1 0 1 1 1 2 2 2 3 3 3 3 3 3 3 3 3 3 3 3 1 0 1 3 3 4 5 5 5 5 5 7 8 8 7 4 3
13 13 16 16 9 4 2 0 0 0 0 1 1 1 1 2 2 3 3 3 3 3 3 3 3 2 1 1 2 3 3 4 4 5 5 4 6 10 12 11 7 4 3
11 12 14 15 11 5 2 0 0 0 0 0 0 0 0 1 1 1 2 2 3 3 3 3 3 1 1 2 3 3 3 4 5 5 4 5 8 12 14 12 8 4 4
13 14 15 15 12 6 2 0 0 0 0 0 0 0 0 0 0 0 1 1 1 2 3 3 2 1 2 3 3 4 4 4 5 4 4 4 8 12 14 13 9 6 5
16 16 16 16 12 6 2 0 0 0 0 0 0 0 0 0 0 0 1 1 1 2 2 3 2 3 4 5 5 6 7 8 6 4 3 4 8 12 13 12 11 8 7
17 16 17 18 14 7 3 1 1 1 1 1 1 1 1 1 0 0 1 2 3 4 4 4 5 6 7 8 8 9 11 11 8 4 4 5 7 11 13 11 10 9 8
18 17 17 18 15 11 8 5 4 4 3 2 3 4 4 3 1 1 2 3 4 6 6 6 7 8 9 10 9 10 12 12 7 4 4 6 9 13 13 12 11 9 8
18 16 15 14 12 12 12 9 8 6 4 3 5 6 7 6 5 4 4 4 6 6 7 7 8 9 10 10 9 9 12 12 7 5 6 8 13 17 16 13 12 11 9
16 15 13 12 10 10 10 10 10 7 4 3 6 8 8 8 8 7 7 8 10 9 9 9 9 10 12 12 12 13 14 11 8 7 7 10 17 20 16 13 12 11 11
13 13 14 14 13 10 9 9 9 6 5 5 8 9 8 7 6 6 8 13 16 14 12 11 11 11 12 12 14 16 15 11 8 8 10 14 20 20 16 13 12 11 10
12 13 15 17 16 13 11 11 8 6 8 10 11 10 7 5 4 3 8 15 18 16 12 12 12 12 10 9 12 16 14 10 8 8 12 18 21 19 17 14 12 11 10
13 13 16 18 18 16 15 12 8 7 11 14 13 11 7 5 3 4 9 15 16 14 12 13 13 10 6 5 8 11 11 8 7 7 12 17 18 17 15 13 12 10 9
14 15 17 21 22 23 20 15 11 11 13 15 16 13 7 5 4 5 11 16 15 12 11 12 12 9 5 4 6 6 6 4 4 6 10 15 15 14 13 12 12 10 8
17 17 20 27 32 33 29 24 20 19 18 19 20 16 8 6 7 9 12 14 12 9 10 11 11 9 8 7 6 4 2 2 3 5 9 13 15 14 13 14 14 13 11
24 24 27 33 40 40 36 31 28 26 24 23 22 18 12 10 13 15 14 13 10 9 10 11 11 10 9 9 8 6 3 1 1 3 7 11 14 15 15 16 17 17 15
34 34 34 36 41 42 38 34 31 29 26 26 24 21 17 16 18 19 17 14 13 13 13 14 11 9 8 7 8 8 6 2 1 2 4 7 9 12 15 17 19 19 17
42 42 39 38 41 43 38 32 30 29 28 27 25 24 22 21 21 20 17 15 14 15 15 15 12 8 6 6 8 10 8 4 2 2 4 4 6 8 11 15 18 18 17
47 45 42 43 45 42 35 31 31 31 30 28 26 26 26 23 20 19 17 15 13 14 15 14 13 10 7 6 7 9 8 5 3 3 4 3 3 5 7 11 14 15 14
49 48 48 50 48 42 35 33 34 35 34 32 31 32 29 24 20 18 17 15 14 13 13 12 12 12 9 6 5 6 7 5 3 3 4 3 2 3 5 8 11 11 10
52 52 54 55 52 45 40 37 37 38 38 35 35 35 31 26 23 20 18 17 16 15 14 14 13 12 10 7 4 4 5 4 2 2 3 3 2 2 3 7 9 8 8
54 54 54 55 55 52 48 43 42 42 40 38 37 37 33 30 27 23 19 18 17 17 17 17 16 13 11 8 6 4 4 4 2 1 2 3 2 2 3 4 5 6 6
54 53 52 54 57 58 55 51 48 48 45 42 43 42 38 34 30 24 20 20 19 18 18 19 18 16 13 9 7 6 5 4 2 1 2 3 4 4 4 3 3 4 5
54 54 55 56 58 60 59 56 53 51 48 46 47 47 42 36 31 25 22 22 21 18 18 18 18 16 13 10 7 6 7 6 3 2 3 3 5 6 6 3 3 4 6
54 55 57 57 57 58 59 57 55 51 48 46 46 45 41 36 30 25 25 26 23 20 19 18 16 13 12 10 7 7 6 6 5 4 3 2 3 5 6 5 5 6 7
51 53 55 56 56 56 57 58 56 52 49 47 44 42 39 34 29 27 29 30 26 22 20 19 15 12 11 9 8 7 6 6 6 5 3 1 1 3 6 8 8 8 8
Wind_Speed
13 14 13 11 10 9 8 8 7 7 7 7 7 8 8 8 8 8 8 8 8 7 7 7 7 7 7 7 7 6 6 5 5 6 8 8 8 8 8 9 9 8 11
15 14 13 11 10 9 8 7 7 7 7 7 7 7 8 8 8 8 8 8 8 8 8 7 7 7 7 6 6 5 4 4 4 6 7 7 8 8 8 8 9 7 11
15 14 13 11 10 9 8 8 7 7 7 7 7 8 8 7 8 8 8 8 8 8 8 8 7 7 6 6 5 5 4 3 3 4 5 4 6 9 9 10 10 10 10
15 13 12 11 10 9 8 8 7 7 7 7 7 7 7 7 7 7 8 8 8 8 8 8 7 7 6 6 5 4 3 2 1 2 3 4 5 9 10 10 10 10 10
14 13 12 11 10 9 8 8 7 7 7 7 6 6 7 7 7 7 7 7 7 7 7 7 6 6 6 5 5 4 3 2 1 1 1 3 4 9 10 10 10 10 10
14 14 13 11 10 9 8 7 7 7 7 6 6 5 6 6 6 6 6 6 7 7 6 6 6 5 5 4 4 4 3 3 2 1 0 3 5 8 9 9 10 10 10
13 13 13 11 10 9 8 7 7 6 6 5 5 5 4 4 4 5 5 5 5 5 5 5 6 5 5 4 3 4 3 4 1 2 2 4 5 9 9 8 9 10 10
13 13 12 12 11 9 9 8 7 6 5 4 4 3 3 3 3 3 4 4 4 3 4 4 4 4 4 4 4 5 5 5 1 2 4 5 8 9 9 8 8 10 10
12 12 11 10 9 9 9 8 7 6 4 3 2 1 2 2 2 3 3 3 2 2 2 2 2 2 2 2 3 4 5 5 3 1 4 4 8 9 9 9 9 10 9
10 11 10 10 8 8 9 8 8 6 5 4 3 2 2 3 4 4 4 3 2 1 0 0 0 1 2 2 2 3 4 4 1 1 3 5 9 10 9 9 9 9 9
8 8 9 8 7 6 8 8 8 7 5 4 3 3 3 2 3 4 4 5 3 2 2 3 2 3 3 3 3 3 3 1 1 1 3 7 9 9 9 9 9 9 9
7 7 7 7 7 5 5 6 4 4 4 3 2 2 2 1 0 2 5 5 5 4 3 4 3 3 3 2 3 3 1 1 1 2 4 9 9 9 8 9 9 9 9
7 5 6 6 5 4 4 4 2 2 3 2 2 1 1 1 1 1 2 3 3 3 2 2 2 1 2 1 0 1 1 0 1 3 5 8 7 8 8 9 9 9 8
7 6 6 6 4 3 3 2 2 1 2 1 2 1 1 1 0 0 1 1 1 1 1 0 1 0 1 1 0 1 1 1 2 2 4 7 7 7 8 9 8 8 8
7 6 6 6 5 3 2 1 2 1 2 2 3 2 1 1 0 1 1 1 1 0 0 0 1 1 2 2 2 2 2 2 2 3 3 6 7 7 8 8 8 8 8
7 6 6 6 6 4 2 1 1 1 1 2 3 3 1 1 1 1 1 1 1 1 1 1 1 1 1 1 2 2 2 2 2 3 3 4 6 8 8 8 7 7 8
7 6 5 6 7 4 2 1 1 1 1 2 2 3 1 1 1 1 1 1 1 1 1 1 2 1 1 1 2 2 2 2 1 2 2 3 4 6 8 7 7 7 7
7 6 5 4 6 5 3 1 1 1 2 1 2 2 2 1 1 1 1 1 1 1 1 1 1 1 1 1 1 1 1 1 1 1 1 2 2 3 5 7 7 7 7
7 6 5 4 5 5 3 2 1 1 1 1 2 2 1 2 1 1 1 1 2 2 2 2 2 1 1 1 1 0 0 0 0 0 1 2 2 3 3 6 7 7 7
7 6 5 4 4 4 3 2 1 1 1 1 1 1 2 1 1 1 0 1 2 2 2 2 2 1 1 1 2 1 0 0 1 1 1 1 2 3 3 4 4 5 7
7 7 6 4 4 3 3 2 2 1 1 1 1 2 2 1 1 1 1 1 1 1 2 2 2 2 1 1 1 1 1 1 1 1 0 1 1 2 3 3 2 2 3
8 7 6 5 4 3 3 2 2 2 2 2 1 2 2 1 1 1 1 1 1 1 1 2 2 2 2 1 1 1 0 1 1 0 1 1 1 1 2 3 2 2 2
8 7 6 5 5 4 3 2 2 2 1 1 2 2 2 1 2 1 1 1 1 1 1 1 2 2 2 2 1 1 1 1 1 1 0 1 1 1 1 1 2 2 2
9 8 7 6 5 4 3 3 3 2 2 1 1 2 2 1 1 1 1 1 1 1 2 1 2 2 2 3 2 1 0 0 0 1 1 0 1 1 1 1 2 2 3
8 8 7 6 5 4 4 3 2 2 1 1 1 2 2 2 1 1 1 1 1 1 2 2 2 2 2 2 2 2 1 0 0 1 1 1 0 0 1 1 1 2 3
7 7 8 7 5 5 4 3 2 1 1 1 1 1 1 1 1 1 1 1 1 1 1 1 1 1 2 2 3 2 2 1 1 1 1 1 1 1 1 1 1 2 2
Wind_Direction
102 105 101 93 87 82 79 80 80 80 78 73 70 66 61 59 57 56 57 55 55 60 63 64 64 61 57 51 54 58 60 76 108 122 131 136 141 143 145 150 148 136 137
105 107 102 94 88 83 82 81 83 84 82 76 72 68 64 61 58 56 55 52 57 64 67 66 63 58 56 51 52 57 59 81 112 136 142 144 148 149 150 147 143 132 140
106 109 104 94 90 87 85 82 84 87 85 79 72 69 66 62 58 55 55 53 61 64 66 66 65 60 53 48 47 52 61 87 123 156 167 154 148 150 145 138 136 140 144
108 110 105 102 96 92 89 84 84 86 86 80 75 70 66 63 60 57 56 56 62 61 64 67 67 60 53 48 45 41 43 56 148 185 186 159 145 143 147 146 145 146 145
110 110 111 111 105 100 95 88 87 87 86 82 77 74 71 67 62 60 58 57 56 57 63 64 64 57 52 49 40 26 19 28 350 269 188 127 123 136 146 151 153 150 148
119 115 118 120 115 109 101 93 91 90 87 84 80 80 76 73 69 63 62 62 60 57 56 53 54 47 47 43 32 10 357 358 330 334 94 114 123 136 142 149 156 154 151
118 118 124 127 124 117 111 104 100 97 92 87 83 83 82 80 77 72 67 69 70 67 61 51 47 38 37 28 13 356 351 334 305 38 59 89 119 134 136 142 153 155 154
118 120 128 135 133 128 124 121 116 111 106 102 95 91 92 93 88 86 82 79 76 71 67 56 42 38 41 26 3 352 352 332 341 75 81 91 120 131 136 137 147 153 153
118 123 132 139 141 140 137 136 134 131 133 130 127 140 149 145 142 129 113 102 89 82 78 68 41 25 19 10 349 340 338 331 331 61 99 104 124 126 131 133 133 145 150
124 130 137 142 145 154 152 150 152 154 158 161 168 204 214 188 183 173 152 143 141 131 170 173 191 248 276 283 290 309 314 316 305 113 106 118 129 128 128 132 134 134 142
124 131 133 134 144 156 150 143 164 167 170 176 183 216 216 205 185 180 149 161 179 197 228 241 240 231 244 250 251 262 284 302 39 110 106 126 132 134 137 140 144 145 145
134 131 126 132 139 148 136 137 165 163 159 192 169 184 208 271 32 105 150 176 193 203 232 238 237 236 242 250 221 224 251 233 248 109 118 135 141 143 147 148 150 150 150
136 131 127 127 129 133 119 141 153 157 146 188 154 146 120 67 50 95 152 166 195 195 228 211 216 229 240 251 147 168 197 191 72 89 118 136 143 151 153 153 155 155 156
141 141 132 124 119 103 97 116 131 131 133 143 121 88 73 78 9 358 110 150 194 183 205 217 238 176 273 296 326 30 59 61 81 95 124 139 143 150 152 151 156 161 163
143 144 134 122 115 102 88 76 109 103 111 128 120 108 68 79 345 5 33 44 347 39 118 334 10 4 337 343 360 14 43 48 61 86 114 138 146 151 154 158 161 168 174
138 142 134 131 118 113 114 96 95 107 95 90 90 85 45 30 37 28 24 19 356 355 20 5 5 15 8 1 5 26 33 39 61 79 107 133 143 151 153 158 166 174 180
139 135 136 139 126 125 119 130 106 85 98 83 96 100 82 37 38 31 29 351 345 9 358 347 16 15 7 12 12 26 26 30 71 89 119 138 148 155 159 159 163 174 179
136 130 138 149 134 135 130 124 94 95 90 83 84 92 82 51 39 29 18 355 354 358 352 28 16 7 12 10 359 3 32 30 64 108 113 127 138 143 161 165 166 170 175
127 129 142 133 139 144 148 157 165 101 87 95 82 78 75 61 31 58 44 14 352 358 6 2 35 22 6 352 320 109 70 6 64 151 118 124 129 146 150 164 172 175 179
131 133 140 144 143 150 162 159 162 135 117 111 98 93 85 83 50 357 71 32 353 1 3 13 15 7 346 328 318 24 51 201 192 146 158 141 149 151 152 163 171 180 184
145 145 147 152 150 156 163 170 170 164 150 130 123 110 114 88 59 59 11 26 3 6 3 10 0 338 328 327 351 346 282 220 176 142 160 145 146 149 151 153 164 166 174
150 154 151 151 149 164 164 171 173 175 171 165 131 114 120 116 76 81 55 355 4 4 19 5 0 338 329 360 325 317 326 346 355 139 100 95 97 126 134 141 140 142 147
158 157 157 157 155 172 168 174 179 163 157 152 144 135 127 130 118 75 61 19 358 31 32 6 3 341 327 329 344 355 0 9 325 344 57 113 95 101 116 113 135 135 134
162 158 153 153 157 163 159 178 181 171 177 179 157 140 141 130 118 124 95 64 16 13 17 13 20 345 332 329 326 332 60 54 332 324 306 334 134 128 113 127 134 138 141
161 159 153 149 155 159 165 170 178 192 186 153 119 116 125 120 111 89 83 64 36 31 23 8 15 7 347 336 326 326 330 300 267 236 293 310 311 190 169 168 150 144 138
150 153 153 150 155 164 168 165 168 181 163 118 109 129 144 135 122 94 94 71 53 33 26 2 352 6 347 334 327 327 322 318 299 290 284 283 286 261 178 168 161 155 150